Lake Lanier Weather Center

Moon Phase Calendar



Lake Lanier Water Level
Online Cameras

 


      

Current Conditions in Olde Federal Pointe
1/27/2022 2:43:51 AM

35°F
Feels Like 32
Clear
Humidity
72%
Pressure
30.3"
Wind
3 mph (E)
Dew Point
27°F
UV Index
0/10 (Low)
Visibility
6 mi

Hourly Forecast

Date & Time Thu, Jan 27
2:00 AM
Thu, Jan 27
3:00 AM
Thu, Jan 27
4:00 AM
Thu, Jan 27
5:00 AM
Thu, Jan 27
6:00 AM
Thu, Jan 27
7:00 AM
Thu, Jan 27
8:00 AM
Thu, Jan 27
9:00 AM
Thu, Jan 27
10:00 AM
Thu, Jan 27
11:00 AM
Thu, Jan 27
12:00 PM
Thu, Jan 27
1:00 PM
Thu, Jan 27
2:00 PM
Thu, Jan 27
3:00 PM
Thu, Jan 27
4:00 PM
Thu, Jan 27
5:00 PM
Thu, Jan 27
6:00 PM
Thu, Jan 27
7:00 PM
Thu, Jan 27
8:00 PM
Thu, Jan 27
9:00 PM
Thu, Jan 27
10:00 PM
Thu, Jan 27
11:00 PM
Fri, Jan 28
12:00 AM
Fri, Jan 28
1:00 AM
Fri, Jan 28
2:00 AM
Fri, Jan 28
3:00 AM
Fri, Jan 28
4:00 AM
Fri, Jan 28
5:00 AM
Fri, Jan 28
6:00 AM
Fri, Jan 28
7:00 AM
Fri, Jan 28
8:00 AM
Fri, Jan 28
9:00 AM
Fri, Jan 28
10:00 AM
Fri, Jan 28
11:00 AM
Fri, Jan 28
12:00 PM
Fri, Jan 28
1:00 PM
Fri, Jan 28
2:00 PM
Fri, Jan 28
3:00 PM
Fri, Jan 28
4:00 PM
Fri, Jan 28
5:00 PM
Fri, Jan 28
6:00 PM
Fri, Jan 28
7:00 PM
Fri, Jan 28
8:00 PM
Fri, Jan 28
9:00 PM
Fri, Jan 28
10:00 PM
Fri, Jan 28
11:00 PM
Sat, Jan 29
12:00 AM
Sat, Jan 29
1:00 AM
Condition
Clear

Clear

Clear

Clear

Clouds

Clouds

Clouds

Clouds

Clouds

Clouds

Clouds

Clouds

Clear

Clear

Clear

Clouds

Clouds

Clouds

Clouds

Clouds

Clouds

Clouds

Clouds

Clouds

Clouds

Clouds

Clouds

Clouds

Clouds

Clouds

Clouds

Clouds

Clouds

Clouds

Clouds

Clouds

Clouds

Clouds

Clouds

Clouds

Clouds

Clouds

Clear

Clear

Clear

Clear

Clear

Clear
Temperature 35°F35°F34°F34°F32°F31°F31°F34°F37°F41°F44°F47°F49°F49°F49°F47°F41°F39°F38°F38°F38°F38°F37°F36°F36°F35°F35°F34°F34°F34°F35°F39°F44°F47°F49°F50°F50°F48°F46°F42°F38°F35°F32°F31°F30°F28°F26°F25°F
Feels Like 30°F30°F29°F28°F27°F26°F26°F27°F32°F37°F41°F45°F48°F48°F49°F47°F41°F39°F38°F38°F38°F38°F37°F36°F36°F35°F35°F34°F34°F31°F32°F36°F41°F44°F46°F47°F45°F42°F40°F35°F30°F26°F23°F21°F19°F17°F15°F13°F
Cloudiness 8%0%5%8%19%28%87%94%95%73%59%49%0%0%2%13%16%16%62%81%88%91%92%94%100%100%100%100%100%100%100%100%100%100%99%94%98%99%99%94%95%96%9%7%10%9%8%8%
Visibility 6 mi6 mi6 mi6 mi6 mi6 mi6 mi6 mi6 mi6 mi6 mi6 mi6 mi6 mi6 mi6 mi6 mi6 mi6 mi6 mi6 mi6 mi6 mi6 mi6 mi6 mi6 mi6 mi6 mi6 mi6 mi6 mi6 mi6 mi6 mi6 mi6 mi6 mi6 mi6 mi6 mi6 mi6 mi6 mi6 mi6 mi6 mi6 mi
Precipitation 0%0%0%0%0%0%0%0%0%0%0%0%0%0%0%0%0%0%0%0%0%0%0%0%0%0%0%0%0%0%0%0%0%0%0%0%0%0%0%0%0%0%0%0%0%0%0%0%
Humidity 75%72%75%76%77%78%75%62%53%47%45%43%43%43%44%52%63%67%69%68%68%69%71%72%74%74%76%77%78%78%78%70%62%55%46%40%42%47%54%61%68%70%68%68%68%66%65%60%
Dew Point 28°F27°F28°F27°F27°F26°F23°F22°F21°F22°F24°F26°F27°F27°F28°F31°F29°F29°F28°F28°F28°F28°F28°F28°F28°F28°F28°F28°F28°F28°F28°F30°F31°F31°F29°F27°F27°F28°F30°F29°F28°F26°F22°F21°F20°F18°F16°F13°F
Pressure 30.3"30.3"30.3"30.33"30.36"30.39"30.42"30.42"30.42"30.39"30.36"30.33"30.27"30.24"30.24"30.24"30.24"30.27"30.27"30.27"30.27"30.27"30.24"30.24"30.24"30.21"30.18"30.18"30.18"30.18"30.15"30.15"30.12"30.09"30.06"30.03"30"30"30"30.03"30.06"30.09"30.12"30.12"30.12"30.12"30.12"30.15"
Wind Speed 6 mph6 mph5.7 mph5.6 mph5.2 mph5.1 mph4.9 mph7.2 mph7.1 mph6.2 mph5.1 mph4 mph3.5 mph3.6 mph3 mph3 mph3 mph2.5 mph1.7 mph1.3 mph1.3 mph1.5 mph1.2 mph0.8 mph0.5 mph1.1 mph1.8 mph2.3 mph2.8 mph3.4 mph3.6 mph4.1 mph5.2 mph6.3 mph8.1 mph10.2 mph11.4 mph12.5 mph12.8 mph12.3 mph12.2 mph12.7 mph12.9 mph13.1 mph13.5 mph13.6 mph13.9 mph13.7 mph
Wind
Direction
74°
ENE
75°
ENE
69°
ENE
60°
ENE
70°
ENE
69°
ENE
74°
ENE
85°
E
90°
E
97°
E
106°
ESE
109°
ESE
127°
SE
127°
SE
145°
SE
138°
SE
142°
SE
129°
SE
127°
SE
89°
E
66°
ENE
77°
ENE
90°
E
58°
ENE
346°
NNW
309°
NW
302°
WNW
297°
WNW
289°
WNW
293°
WNW
291°
WNW
288°
WNW
279°
W
278°
W
277°
W
283°
WNW
286°
WNW
292°
WNW
304°
NW
317°
NW
318°
NW
315°
NW
314°
NW
315°
NW
317°
NW
316°
NW
315°
NW
316°
NW

Daily Forecast

Date High Low Precip. Humidity
Today
Jan 27

Clouds
49 °F
31 °F
0%
45%
Friday
Jan 28

Clouds
50 °F
30 °F
0%
46%
Saturday
Jan 29

Clear
37 °F
22 °F
0%
15%
Sunday
Jan 30

Clouds
51 °F
26 °F
0%
41%
Monday
Jan 31

Clear
54 °F
28 °F
0%
34%
Tuesday
Feb 1

Clouds
50 °F
34 °F
0%
56%
Wednesday
Feb 2

Rain
48 °F
40 °F
100%
90%
Thursday
Feb 3

Rain
63 °F
45 °F
100%
96%
Friday
Feb 4

Rain
55 °F
33 °F
100%
48%
Saturday
Feb 5

Rain
45 °F
25 °F
100%
98%
Sunday
Feb 6

Clear
34 °F
19 °F
0%
32%
Monday
Feb 7

Clouds
39 °F
24 °F
0%
39%
Tuesday
Feb 8

Snow
34 °F
28 °F
100%
94%
Wednesday
Feb 9

Rain
45 °F
32 °F
20%
88%
Thursday
Feb 10

Rain
37 °F
35 °F
100%
98%
Friday
Feb 11

Rain
45 °F
33 °F
100%
81%

Temperature 8-14 Day Outlook



Precipitation 8-14 Day Outlook




Quick Links
Lake Lanier News
Lake Lanier Photos
Lake Lanier Videos




About Us
Contact Us
Site Map
Search Site
Advertise With Us
   
www.DiscoverLanier.com
THE LAKE LANIER WEBSITE

Copyright 2022, Lakes Online
Privacy    |    Legal